User: anonymous   Login
Location: Unspecified
(0.0000°N, 0.0000°E)
Time: 07:07:16
(UTC+01:00)
Language:

Transit 2A - Orbit

View from above orbital plane
View from above orbital plane
View from above satellite
View from above satellite

Ground track
Ground track

The orbit data is extracted from the following two-line orbital elements,

1 00045U 60007A   14304.69722956  .00000214  00000-0  81090-4 0  2756
2 00045 066.6974 037.0892 0256199 010.0965 139.4246 14.33096987828053
Epoch (UTC): 31 October 2014 16:44:00
Eccentricity: 0.0256199
inclination: 66.6974°
perigee height: 598 km
apogee height: 965 km
right ascension of ascending node: 37.0892°
argument of perigee: 10.0965°
revolutions per day: 14.33096987
mean anomaly at epoch: 139.4246°
orbit number at epoch: 82805

The dashed part of the orbit path shows where the satellite is in the earth's shadow,  

DLR